Loading…
Loading parcel record…
Hamilton, NJ·Mercer County
Owner email, phone, and authorized agent are available on Pro.
| Date | Price | Book / Page | Verified by |
|---|---|---|---|
| 12/3/2025 | $1,750,000 | 06612 / 01370 | Recorded deed |
| 9/18/2023 | $307,500 | — | Recorded deed |
| 7/31/2020 |
| $113,500 |
| — |
| Recorded deed |
| 9/27/2005 | $5,300,000 | 5187 / 231 | Tax assessor |
| 7/11/1991 | $1 | 2578 / 654 | Tax assessor |
Activity captured from the county clerk's daily feed. Includes deeds, mortgages, and other recorded filings.
| Date | Type | Grantor | Grantee | Book / Page | Instrument |
|---|---|---|---|---|---|
| 2026-05-01 | CUC | — | — | 261 / 378 | 2026018292 |
| 2026-04-02 | DISCHARGE OF MORTGAGE | — | — | 1693 / 1480 | 2026014227 |
| 2026-04-02 | SECURED TRANSACTION | — | — | 260 / 1715 | 2026014087 |
| 2026-03-16 | DISCHARGE OF MORTGAGE | — | — | 1693 / 152 | 2026011772 |
| 2026-03-16 | MORTGAGE | — | — | 12033 / 1963 | 2026011723 |
| 2025-12-11 | ASSIGNMENT OF RENTS/LEASES | — | — | 12008 / 152 | 2025045355 |
| 2025-12-11 | MORTGAGE | — | — | 12008 / 127 | 2025045354 |
| 2025-12-11 | DEED | — | — | 6612 / 1370 | 2025045353 |
| 2025-06-30 | DEED | — | — | 6595 / 1335 | 2025023755 |
| 2024-05-01 | DEED | — | — | 6555 / 965 | 2024015451 |
| 2023-09-22 | DEED | — | — | 6535 / 1192 | 2023032746 |
| 2023-09-13 | MORTGAGE | — | — | 11831 / 818 | 2023031524 |
| 2022-09-08 | MORTGAGE | — | — | 11764 / 1434 | 2022042449 |
| 2022-09-08 | DEED | — | — | 6499 / 957 | 2022042448 |
| 2021-06-22 | MORTGAGE | — | — | 11630 / 1613 | 2021037839 |
| 2021-06-15 | NOTICE OF SETTLEMENT | — | — | 1556 / 414 | 2021036411 |
| 2020-09-14 | MORTGAGE | — | — | 11519 / 1390 | 2020039284 |
| 2020-09-14 | DEED | — | — | 6413 / 1529 | 2020039283 |
| 2020-08-24 | NOTICE OF SETTLEMENT | — | — | 1536 / 1023 | 2020035744 |
| 2020-08-12 | DEED | — | — | 6410 / 1599 | 2020033771 |
| 2020-03-19 | NOTICE OF SETTLEMENT | — | — | 1527 / 1383 | 2020013071 |
| 2020-02-26 | MORTGAGE | — | — | 11470 / 1351 | 2020009446 |
| 2019-11-06 | NOTICE OF SETTLEMENT | — | — | 1522 / 419 | 2019047794 |
| 2019-03-21 | DEED | — | — | 6361 / 1254 | 2019011757 |
| 2018-10-29 | DEED | — | — | 6346 / 1017 | 2018046450 |
| 2018-07-31 | DEED | — | — | 6335 / 1086 | 2018031755 |
| 2018-01-30 | MORTGAGE | — | — | 11325 / 206 | 2018004257 |
| 2016-06-08 | DEED | — | — | 6251 / 1865 | 2016026098 |
| 2016-02-11 | MORTGAGE | — | — | 11182 / 546 | 2016007474 |
| 2016-02-11 | DEED | — | — | 6241 / 799 | 2016007473 |